timestamp,wind_dir_avg,wind_spd_avg,wind_spd_max_dir,wind_spd_gust,battery_voltage,lat,long
2023-09-02 00:04:00+00:00,228.0,4.58,231.0,5.55,12.57,47.59359,-54.27349
2023-09-02 00:14:01+00:00,228.0,4.71,226.0,5.76,12.49,47.59359,-54.27349
2023-09-02 00:24:01+00:00,222.0,4.79,223.0,5.47,12.49,47.59359,-54.27349
2023-09-02 00:34:01+00:00,216.0,4.2,217.0,4.79,12.49,47.59359,-54.27349
2023-09-02 00:44:01+00:00,172.0,3.45,166.0,4.68,12.49,47.59359,-54.27349
2023-09-02 00:54:01+00:00,178.0,4.82,181.0,5.7,12.49,47.59359,-54.27349
2023-09-02 01:04:01+00:00,183.0,3.94,178.0,4.87,12.49,47.59359,-54.27349
2023-09-02 01:14:01+00:00,185.0,4.45,189.0,5.21,12.41,47.59359,-54.27349
2023-09-02 01:24:01+00:00,187.0,5.07,190.0,5.69,12.41,47.59359,-54.27349
2023-09-02 01:34:01+00:00,190.0,4.82,188.0,5.55,12.41,47.59359,-54.27349
2023-09-02 01:44:01+00:00,192.0,4.67,187.0,5.59,12.41,47.59359,-54.27349
2023-09-02 01:54:01+00:00,184.0,4.93,184.0,5.45,12.41,47.59359,-54.27349
2023-09-02 02:04:01+00:00,179.0,5.19,181.0,5.95,12.41,47.59359,-54.27349
2023-09-02 02:14:01+00:00,183.0,4.95,186.0,5.52,12.41,47.59359,-54.27349
2023-09-02 02:24:01+00:00,181.0,4.3,179.0,4.8,12.41,47.59359,-54.27349
2023-09-02 02:34:01+00:00,189.0,3.34,197.0,3.94,12.41,47.59359,-54.27349
2023-09-02 02:44:01+00:00,188.0,3.03,186.0,3.52,12.41,47.59359,-54.27349
2023-09-02 02:54:01+00:00,191.0,4.0,193.0,4.38,12.41,47.59359,-54.27349
2023-09-02 03:04:01+00:00,197.0,4.15,197.0,4.89,12.41,47.59359,-54.27349
2023-09-02 03:14:01+00:00,260.0,2.67,251.0,3.7,12.41,47.59359,-54.27349
2023-09-02 03:24:01+00:00,296.0,2.2,290.0,2.63,12.41,47.59359,-54.27349
2023-09-02 03:34:01+00:00,270.0,0.21,214.0,0.63,12.41,47.59359,-54.27349
2023-09-02 03:44:01+00:00,266.0,1.86,269.0,2.6,12.41,47.59359,-54.27349
2023-09-02 03:54:01+00:00,291.0,2.56,285.0,3.13,12.41,47.59359,-54.27349
2023-09-02 04:04:01+00:00,283.0,2.06,283.0,2.62,12.41,47.59359,-54.27349
2023-09-02 04:14:00+00:00,350.0,3.39,350.0,4.02,12.41,47.59359,-54.27349
2023-09-02 04:24:00+00:00,325.0,2.17,326.0,2.69,12.41,47.59359,-54.27349
2023-09-02 04:34:00+00:00,7.0,1.47,5.0,1.7,12.41,47.59359,-54.27349
2023-09-02 04:44:00+00:00,5.0,2.71,13.0,3.05,12.41,47.59359,-54.27349
2023-09-02 04:54:00+00:00,0.0,3.44,359.0,3.99,12.41,47.59359,-54.27349
2023-09-02 05:04:00+00:00,1.0,3.79,359.0,4.17,12.41,47.59359,-54.27349
2023-09-02 05:14:00+00:00,338.0,4.7,340.0,5.36,12.41,47.59359,-54.27349
2023-09-02 05:24:00+00:00,341.0,3.85,347.0,4.38,12.41,47.59359,-54.27349
2023-09-02 05:34:00+00:00,337.0,4.41,333.0,4.9,12.41,47.59359,-54.27349
2023-09-02 05:44:00+00:00,354.0,3.82,0.0,4.57,12.41,47.59359,-54.27349
2023-09-02 05:54:00+00:00,339.0,3.68,341.0,4.03,12.41,47.59359,-54.27349
2023-09-02 06:04:00+00:00,330.0,4.21,325.0,4.83,12.41,47.59359,-54.27349
2023-09-02 06:14:00+00:00,322.0,4.62,322.0,5.6,12.41,47.59359,-54.27349
2023-09-02 06:24:00+00:00,332.0,5.03,330.0,5.66,12.41,47.59359,-54.27349
2023-09-02 06:34:00+00:00,328.0,5.75,326.0,6.14,12.41,47.59359,-54.27349
2023-09-02 06:44:00+00:00,327.0,6.15,327.0,6.67,12.41,47.59359,-54.27349
2023-09-02 06:54:00+00:00,329.0,6.33,333.0,7.09,12.41,47.59359,-54.27349
2023-09-02 07:04:00+00:00,329.0,5.93,328.0,6.44,12.41,47.59359,-54.27349
2023-09-02 07:14:01+00:00,323.0,5.89,326.0,6.3,12.33,47.59359,-54.27349
2023-09-02 07:24:01+00:00,326.0,6.58,326.0,7.13,12.33,47.59359,-54.27349
2023-09-02 07:34:01+00:00,324.0,6.18,331.0,6.85,12.33,47.59359,-54.27349
2023-09-02 07:44:01+00:00,327.0,5.26,324.0,5.71,12.33,47.59359,-54.27349
2023-09-02 07:54:01+00:00,328.0,4.35,327.0,4.77,12.33,47.59359,-54.27349
2023-09-02 08:04:01+00:00,331.0,3.62,329.0,4.42,12.33,47.59359,-54.27349
2023-09-02 08:14:00+00:00,348.0,1.45,340.0,1.86,12.33,47.59359,-54.27349
2023-09-02 08:24:00+00:00,81.0,1.32,79.0,1.6,12.33,47.59359,-54.27349
2023-09-02 08:34:00+00:00,45.0,0.43,50.0,0.83,12.33,47.59359,-54.27349
2023-09-02 08:44:00+00:00,290.0,0.31,311.0,0.55,12.33,47.59359,-54.27349
2023-09-02 08:54:00+00:00,238.0,0.87,233.0,1.24,12.33,47.59359,-54.27349
2023-09-02 09:04:00+00:00,300.0,1.87,312.0,2.36,12.33,47.59359,-54.27349
2023-09-02 09:14:00+00:00,326.0,1.55,307.0,2.15,12.25,47.59359,-54.27349
2023-09-02 09:24:00+00:00,346.0,1.78,339.0,2.27,12.25,47.59359,-54.27349
2023-09-02 09:34:00+00:00,331.0,1.72,329.0,2.07,12.25,47.59359,-54.27349
2023-09-02 09:44:00+00:00,316.0,1.47,333.0,2.01,12.25,47.59359,-54.27349
2023-09-02 09:54:00+00:00,308.0,1.23,308.0,1.61,12.25,47.59359,-54.27349
2023-09-02 10:04:00+00:00,311.0,1.16,316.0,1.64,12.25,47.59359,-54.27349
2023-09-02 10:14:00+00:00,308.0,1.37,303.0,1.79,13.21,47.59359,-54.27349
2023-09-02 10:24:00+00:00,338.0,1.21,329.0,1.69,13.21,47.59359,-54.27349
2023-09-02 10:34:00+00:00,288.0,1.14,287.0,1.69,13.21,47.59359,-54.27349
2023-09-02 10:44:00+00:00,327.0,1.03,305.0,1.7,13.21,47.59359,-54.27349
2023-09-02 10:54:00+00:00,317.0,2.11,308.0,2.96,13.21,47.59359,-54.27349
2023-09-02 11:04:00+00:00,342.0,1.41,353.0,1.75,13.21,47.59359,-54.27349
2023-09-02 11:14:01+00:00,310.0,0.93,311.0,1.64,13.68,47.59359,-54.27349
2023-09-02 11:24:01+00:00,182.0,0.52,175.0,1.25,13.68,47.59359,-54.27349
2023-09-02 11:34:01+00:00,259.0,0.82,260.0,1.74,13.68,47.59359,-54.27349
2023-09-02 11:44:01+00:00,299.0,2.56,302.0,3.04,13.68,47.59359,-54.27349
2023-09-02 11:54:01+00:00,1.0,1.44,1.0,2.08,13.68,47.59359,-54.27349
2023-09-02 12:04:01+00:00,281.0,1.19,286.0,2.23,13.68,47.59359,-54.27349
2023-09-02 12:14:00+00:00,290.0,0.58,292.0,0.94,14.32,47.59359,-54.27349
2023-09-02 12:24:00+00:00,128.0,1.27,114.0,2.03,14.32,47.59359,-54.27349
2023-09-02 12:34:00+00:00,174.0,1.78,167.0,2.19,14.32,47.59359,-54.27349
2023-09-02 12:44:00+00:00,310.0,0.92,313.0,1.33,14.32,47.59359,-54.27349
2023-09-02 12:54:00+00:00,243.0,0.56,269.0,1.16,14.32,47.59359,-54.27349
2023-09-02 13:04:00+00:00,237.0,0.84,248.0,2.58,14.32,47.59359,-54.27349
2023-09-02 13:14:00+00:00,293.0,3.67,296.0,4.15,14.32,47.59359,-54.27349
2023-09-02 13:24:00+00:00,285.0,3.69,288.0,4.2,14.32,47.59359,-54.27349
2023-09-02 13:34:00+00:00,215.0,4.05,214.0,4.72,14.32,47.59359,-54.27349
2023-09-02 13:44:00+00:00,222.0,3.24,224.0,3.81,14.32,47.59359,-54.27349
2023-09-02 13:54:00+00:00,207.0,4.66,205.0,5.28,14.32,47.59359,-54.27349
2023-09-02 14:04:00+00:00,198.0,5.34,199.0,5.93,14.32,47.59359,-54.27349
2023-09-02 14:14:00+00:00,204.0,5.56,202.0,6.14,14.08,47.59359,-54.27349
2023-09-02 14:24:00+00:00,211.0,5.03,210.0,5.6,14.08,47.59359,-54.27349
2023-09-02 14:34:00+00:00,208.0,4.62,210.0,5.3,14.08,47.59359,-54.27349
2023-09-02 14:44:00+00:00,202.0,5.49,202.0,6.26,14.08,47.59359,-54.27349
2023-09-02 14:54:00+00:00,207.0,4.45,215.0,5.16,14.08,47.59359,-54.27349
2023-09-02 15:04:00+00:00,207.0,4.42,214.0,4.98,14.08,47.59359,-54.27349
2023-09-02 15:14:01+00:00,199.0,5.99,206.0,6.79,13.6,47.59359,-54.27349
2023-09-02 15:24:01+00:00,200.0,5.08,195.0,5.69,13.6,47.59359,-54.27349
2023-09-02 15:34:01+00:00,200.0,5.83,201.0,6.36,13.6,47.59359,-54.27349
2023-09-02 15:44:01+00:00,195.0,6.14,198.0,6.82,13.6,47.59359,-54.27349
2023-09-02 15:54:01+00:00,194.0,6.93,196.0,7.75,13.6,47.59359,-54.27349
2023-09-02 16:04:01+00:00,188.0,6.55,195.0,7.36,13.6,47.59359,-54.27349
2023-09-02 16:14:01+00:00,241.0,2.73,241.0,3.2,13.6,47.59359,-54.27349
2023-09-02 16:24:01+00:00,198.0,7.28,204.0,8.07,13.6,47.59359,-54.27349
2023-09-02 16:34:01+00:00,195.0,7.27,198.0,8.2,13.6,47.59359,-54.27349
2023-09-02 16:44:01+00:00,198.0,7.14,201.0,8.68,13.6,47.59359,-54.27349
2023-09-02 16:54:01+00:00,193.0,6.2,191.0,6.99,13.6,47.59359,-54.27349
2023-09-02 17:04:01+00:00,246.0,3.0,244.0,3.6,13.6,47.59359,-54.27349
2023-09-02 17:14:01+00:00,268.0,4.15,272.0,4.69,13.6,47.59359,-54.27349
2023-09-02 17:24:01+00:00,204.0,6.65,200.0,7.48,13.6,47.59359,-54.27349
2023-09-02 17:34:01+00:00,235.0,3.33,248.0,4.41,13.6,47.59359,-54.27349
2023-09-02 17:44:01+00:00,199.0,6.37,203.0,7.1,13.6,47.59359,-54.27349
2023-09-02 17:54:01+00:00,211.0,4.86,207.0,5.52,13.6,47.59359,-54.27349
2023-09-02 18:04:01+00:00,205.0,5.36,221.0,7.04,13.6,47.59359,-54.27349
2023-09-02 18:14:00+00:00,242.0,3.5,238.0,4.33,14.08,47.59359,-54.27349
2023-09-02 18:24:00+00:00,233.0,3.87,233.0,4.25,14.08,47.59359,-54.27349
2023-09-02 18:34:00+00:00,257.0,4.39,256.0,4.84,14.08,47.59359,-54.27349
2023-09-02 18:44:00+00:00,250.0,4.0,252.0,4.3,14.08,47.59359,-54.27349
2023-09-02 18:54:00+00:00,270.0,5.15,271.0,5.73,14.08,47.59359,-54.27349
2023-09-02 19:04:00+00:00,274.0,4.58,281.0,5.13,14.08,47.59359,-54.27349
2023-09-02 19:14:00+00:00,269.0,4.32,265.0,4.85,13.76,47.59359,-54.27349
2023-09-02 19:24:00+00:00,271.0,4.21,271.0,4.6,13.76,47.59359,-54.27349
2023-09-02 19:34:00+00:00,273.0,4.39,274.0,4.9,13.76,47.59359,-54.27349
2023-09-02 19:44:00+00:00,289.0,4.45,285.0,5.08,13.76,47.59359,-54.27349
2023-09-02 19:54:00+00:00,294.0,5.19,296.0,5.59,13.76,47.59359,-54.27349
2023-09-02 20:04:00+00:00,281.0,5.09,279.0,5.74,13.76,47.59359,-54.27349
2023-09-02 20:14:01+00:00,285.0,4.64,287.0,5.08,13.53,47.59359,-54.27349
2023-09-02 20:24:01+00:00,270.0,5.48,270.0,5.84,13.53,47.59359,-54.27349
2023-09-02 20:34:01+00:00,265.0,4.29,268.0,4.64,13.53,47.59359,-54.27349
2023-09-02 20:44:01+00:00,261.0,4.03,263.0,4.29,13.53,47.59359,-54.27349
2023-09-02 20:54:01+00:00,261.0,5.29,259.0,5.85,13.53,47.59359,-54.27349
2023-09-02 21:04:01+00:00,258.0,4.75,260.0,5.24,13.53,47.59359,-54.27349
2023-09-02 21:14:01+00:00,259.0,4.58,256.0,5.08,13.29,47.59359,-54.27349
2023-09-02 21:24:01+00:00,263.0,5.36,262.0,5.84,13.29,47.59359,-54.27349
2023-09-02 21:34:01+00:00,268.0,6.33,269.0,6.93,13.29,47.59359,-54.27349
2023-09-02 21:44:01+00:00,258.0,4.94,258.0,5.6,13.29,47.59359,-54.27349
2023-09-02 21:54:01+00:00,262.0,4.23,264.0,4.74,13.29,47.59359,-54.27349
2023-09-02 22:04:01+00:00,256.0,5.13,262.0,5.66,13.29,47.59359,-54.27349
2023-09-02 22:14:00+00:00,258.0,5.25,255.0,5.98,12.81,47.59359,-54.27349
2023-09-02 22:24:00+00:00,227.0,4.04,234.0,4.77,12.81,47.59359,-54.27349
2023-09-02 22:34:00+00:00,220.0,4.26,227.0,5.44,12.81,47.59359,-54.27349
2023-09-02 22:44:00+00:00,219.0,4.99,220.0,5.54,12.81,47.59359,-54.27349
2023-09-02 22:54:00+00:00,214.0,6.0,216.0,6.45,12.81,47.59359,-54.27349
2023-09-02 23:04:00+00:00,223.0,5.65,226.0,6.49,12.81,47.59359,-54.27349
2023-09-02 23:14:00+00:00,228.0,5.39,228.0,6.26,12.49,47.59359,-54.27349
2023-09-02 23:24:00+00:00,234.0,6.14,237.0,7.23,12.49,47.59359,-54.27349
2023-09-02 23:34:00+00:00,243.0,6.47,253.0,8.55,12.49,47.59359,-54.27349
2023-09-02 23:44:00+00:00,248.0,8.14,247.0,8.83,12.49,47.59359,-54.27349
2023-09-02 23:54:00+00:00,259.0,7.82,261.0,8.69,12.49,47.59359,-54.27349
